Provincetown, MA

9:47 PM EST on January 21, 2018 (GMT -0500)
Provincetown Municipal

Weather History for KPVC - June, 2012

Change the Weather History Date:

Sunday, June 3, 2012

  Actual Average Record
Temperature  
Mean Temperature 56 °F -  
Max Temperature 62 °F 64 °F 80 °F (2008)
Min Temperature 51 °F 50 °F 41 °F (2015)
Degree Days  
Heating Degree Days 8    
Growing Degree Days 6 (Base 50)    
Moisture  
Dew Point 55 °F    
Average Humidity 91    
Maximum Humidity 100    
Minimum Humidity 77    
Precipitation  
Precipitation 0.16 in - - ()
Sea Level Pressure  
Sea Level Pressure 29.64 in    
Wind  
Wind Speed 13 mph (WNW)    
Max Wind Speed 26 mph    
Max Gust Speed 33 mph    
Visibility 8 miles    
Events      
Averages and records for this station are not official NWS values.
T = Trace of Precipitation, MM = Missing Value Source: NWS Daily Summary

Daily Weather History Graph

Daily Weather History Graph

Search for Another Location

Airport or City:

Trip Planner

Search our weather history database for the weather conditions in past years. The results will help you decide how hot, cold, wet, or windy it might be!

Date:

Astronomy

Jun. 03, 2012 Rise Set
Actual Time 5:06 AM EDT 8:12 PM EDT
Civil Twilight 4:32 AM EDT 8:45 PM EDT
Nautical Twilight 3:49 AM EDT 9:29 PM EDT
Astronomical Twilight 2:58 AM EDT 10:21 PM EDT
Moon 7:33 PM EDT (6/3) 4:12 AM EDT (6/3)
Length of Visible Light 16h 13m
Length of Day
15h 05m
Waxing Gibbous, 99% of the Moon is Illuminated
Jun 3
Waxing Gibbous
Jun 4
Full
Jun 11
Last Quarter
Jun 19
New
Jun 26
First Quarter

Hourly Weather History & Observations

Time (EDT) Temp. Dew Point Humidity Pressure Visibility Wind Dir Wind Speed Gust Speed Precip Events Conditions
12:15 AM 59.0 °F 57.2 °F 94% 29.73 in 5.0 mi SSE 13.8 mph 19.6 mph 0.03 in   Overcast
12:55 AM 59.0 °F 57.2 °F 94% 29.72 in 6.0 mi South 9.2 mph 18.4 mph 0.10 in   Overcast
1:15 AM 59.0 °F 57.2 °F 94% 29.72 in 5.0 mi South 8.1 mph - 0.01 in   Overcast
1:35 AM 57.2 °F 57.2 °F 100% 29.72 in 6.0 mi SSW 9.2 mph - 0.03 in   Overcast
1:55 AM 57.2 °F 57.2 °F 100% 29.71 in 5.0 mi SSE 8.1 mph - 0.04 in   Overcast
2:15 AM 59.0 °F 57.2 °F 94% 29.70 in 4.0 mi South 6.9 mph - 0.01 in   Overcast
2:35 AM 59.0 °F 57.2 °F 94% 29.70 in 10.0 mi SSE 6.9 mph - 0.02 in   Overcast
3:15 AM 60.8 °F 57.2 °F 88% 29.68 in 10.0 mi SSE 8.1 mph - N/A   Overcast
3:35 AM 60.8 °F 57.2 °F 88% 29.67 in 10.0 mi South 10.4 mph 16.1 mph N/A   Overcast
3:55 AM 60.8 °F 57.2 °F 88% 29.66 in 10.0 mi SSE 10.4 mph - N/A   Overcast
4:15 AM 60.8 °F 57.2 °F 88% 29.65 in 10.0 mi SSE 11.5 mph - N/A   Overcast
4:35 AM 60.8 °F 57.2 °F 88% 29.65 in 10.0 mi South 10.4 mph - N/A   Overcast
4:55 AM 59.0 °F 55.4 °F 88% 29.65 in 10.0 mi SSE 8.1 mph - N/A   Overcast
5:15 AM 59.0 °F 57.2 °F 94% 29.64 in 7.0 mi South 8.1 mph - N/A   Overcast
5:35 AM 57.2 °F 57.2 °F 100% 29.65 in 1.2 mi South 6.9 mph - N/A   Overcast
5:55 AM 57.2 °F 57.2 °F 100% 29.65 in 0.8 mi South 5.8 mph - N/A   Overcast
6:15 AM 57.2 °F 57.2 °F 100% 29.64 in 0.8 mi SSE 6.9 mph - N/A   Overcast
6:35 AM 59.0 °F 57.2 °F 94% 29.64 in 1.8 mi South 6.9 mph - N/A   Overcast
6:55 AM 59.0 °F 57.2 °F 94% 29.64 in 9.0 mi SSW 4.6 mph - N/A   Overcast
7:15 AM 59.0 °F 57.2 °F 94% 29.64 in 7.0 mi SW 5.8 mph - N/A   Overcast
7:35 AM 59.0 °F 57.2 °F 94% 29.64 in 2.0 mi WSW 8.1 mph - N/A   Overcast
8:15 AM 59.0 °F 57.2 °F 94% 29.64 in 0.5 mi WNW 9.2 mph - N/A   Overcast
8:35 AM 59.0 °F 57.2 °F 94% 29.64 in 2.5 mi WNW 13.8 mph 17.3 mph N/A   Overcast
8:55 AM 60.8 °F 57.2 °F 88% 29.63 in 10.0 mi WNW 12.7 mph 19.6 mph N/A   Overcast
9:15 AM 59.0 °F 57.2 °F 94% 29.63 in 10.0 mi WNW 12.7 mph 17.3 mph N/A   Overcast
9:35 AM 59.0 °F 57.2 °F 94% 29.63 in 10.0 mi WNW 13.8 mph 18.4 mph N/A   Overcast
9:55 AM 59.0 °F 57.2 °F 94% 29.63 in 10.0 mi WNW 16.1 mph 20.7 mph N/A   Overcast
10:35 AM 62.6 °F 59.0 °F 88% 29.63 in 10.0 mi NW 15.0 mph 19.6 mph N/A   Mostly Cloudy
10:55 AM 60.8 °F 57.2 °F 88% 29.63 in 10.0 mi NW 17.3 mph - N/A   Mostly Cloudy
11:15 AM 60.8 °F 55.4 °F 82% 29.63 in 10.0 mi NW 18.4 mph 24.2 mph N/A   Overcast
11:35 AM 60.8 °F 55.4 °F 82% 29.63 in 10.0 mi NW 18.4 mph 28.8 mph N/A   Overcast
11:55 AM 60.8 °F 55.4 °F 82% 29.63 in 10.0 mi NW 19.6 mph 25.3 mph N/A   Overcast
12:15 PM 60.8 °F 55.4 °F 82% 29.64 in 10.0 mi NW 18.4 mph 25.3 mph N/A   Overcast
12:35 PM 60.8 °F 55.4 °F 82% 29.64 in 10.0 mi NW 19.6 mph 25.3 mph N/A   Overcast
1:15 PM 60.8 °F 53.6 °F 77% 29.64 in 10.0 mi NW 21.9 mph 31.1 mph N/A   Overcast
1:35 PM 59.0 °F 53.6 °F 82% 29.64 in 10.0 mi NW 26.5 mph 33.4 mph N/A   Overcast
1:55 PM 57.2 °F 53.6 °F 88% 29.63 in 9.0 mi NW 20.7 mph 33.4 mph N/A   Overcast
2:15 PM 57.2 °F 53.6 °F 88% 29.63 in 9.0 mi NW 24.2 mph 32.2 mph N/A   Overcast
2:35 PM 59.0 °F 53.6 °F 82% 29.62 in 10.0 mi NNW 25.3 mph 29.9 mph N/A   Overcast
2:55 PM 57.2 °F 53.6 °F 88% 29.62 in 10.0 mi NNW 21.9 mph 31.1 mph N/A   Overcast
3:15 PM 57.2 °F 53.6 °F 88% 29.63 in 10.0 mi NW 21.9 mph 32.2 mph N/A   Overcast
3:35 PM 57.2 °F 51.8 °F 82% 29.63 in 10.0 mi NNW 24.2 mph 29.9 mph N/A   Overcast
5:35 PM 55.4 °F 51.8 °F 88% 29.62 in 9.0 mi NNW 15.0 mph 26.5 mph N/A   Overcast
6:15 PM 53.6 °F 51.8 °F 94% 29.62 in 10.0 mi NNW 21.9 mph 27.6 mph N/A   Overcast
6:35 PM 53.6 °F 51.8 °F 94% 29.62 in 10.0 mi North 20.7 mph 28.8 mph N/A   Overcast
6:55 PM 53.6 °F 51.8 °F 94% 29.64 in 10.0 mi North 19.6 mph 27.6 mph N/A   Overcast
7:55 PM 53.6 °F 51.8 °F 94% 29.64 in 10.0 mi North 20.7 mph 27.6 mph N/A   Overcast
8:15 PM 53.6 °F 51.8 °F 94% 29.63 in 10.0 mi North 20.7 mph 28.8 mph N/A   Overcast
8:35 PM 53.6 °F 51.8 °F 94% 29.63 in 10.0 mi North 19.6 mph 28.8 mph N/A   Overcast
9:15 PM 53.6 °F 51.8 °F 94% 29.62 in 10.0 mi North 17.3 mph 26.5 mph N/A   Overcast
9:35 PM 53.6 °F 51.8 °F 94% 29.62 in 10.0 mi North 18.4 mph 25.3 mph N/A   Overcast
9:55 PM 53.6 °F 51.8 °F 94% 29.61 in 10.0 mi North 21.9 mph 26.5 mph N/A   Overcast
10:15 PM 53.6 °F 51.8 °F 94% 29.61 in 10.0 mi North 19.6 mph 25.3 mph N/A   Overcast
10:35 PM 51.8 °F 51.8 °F 100% 29.61 in 5.0 mi North 20.7 mph 28.8 mph N/A   Overcast
10:55 PM 51.8 °F 51.8 °F 100% 29.60 in 5.0 mi North 18.4 mph 26.5 mph N/A   Overcast
11:15 PM 51.8 °F 50.0 °F 94% 29.60 in 4.0 mi North 20.7 mph 26.5 mph N/A   Overcast
11:35 PM 51.8 °F 50.0 °F 94% 29.60 in 6.0 mi North 19.6 mph 25.3 mph N/A   Overcast
11:55 PM 51.8 °F 50.0 °F 94% 29.60 in 9.0 mi North 17.3 mph 25.3 mph N/A   Overcast